Stations météo

Publicité
Aeroport de Brive-Souillac, France (7439): Température de l'air & dewpoint: 20.03.2019 17:00:00 - 26.03.2019 17:00:00 (CET)Aeroport de Brive-Souillac, France (7439): Vitesse du vent & gusts: 20.03.2019 17:00:00 - 26.03.2019 17:00:00 (CET)Aeroport de Brive-Souillac, France (7439): Direction du vent: 20.03.2019 17:00:00 - 26.03.2019 17:00:00 (CET)Aeroport de Brive-Souillac, France (7439): reduced air pressure: 20.03.2019 17:00:00 - 26.03.2019 17:00:00 (CET)Aeroport de Brive-Souillac, France (7439): visibility: 20.03.2019 17:00:00 - 26.03.2019 17:00:00 (CET)Aeroport de Brive-Souillac, France (7439): Quantités de précipitations: 20.03.2019 17:00:00 - 26.03.2019 17:00:00 (CET)
Date & Time tt [°C] td [°C] ff [km/h] ff [knt] fx [km/h] fx [knt] dd ppp [hPa] vv [km] rr [mm]
26.03.2019 17:00:00 14,6 -3,7 29 16 51 27 N 1026,1 58 0,0
26.03.2019 16:00:00 15,0 -3,4 29 16 49 27 N 1026,1 53 0,0
26.03.2019 15:00:00 14,7 -2,7 22 12 49 26 NNW 1026,7 51 0,0
26.03.2019 14:00:00 13,7 -0,7 23 12 48 26 NW 1027,5 54 0,0
26.03.2019 13:00:00 12,4 -1,2 20 11 40 22 NW 1027,9 55 0,0
26.03.2019 12:00:00 10,9 -1,9 18 10 31 17 NW 1028,4 60 0,0
26.03.2019 11:00:00 9,2 -0,7 21 12 34 18 N 1029,2 60 0,0
26.03.2019 10:00:00 7,0 -0,7 15 8 39 21 N 1029,7 20 0,0
26.03.2019 09:00:00 5,6 -0,5 13 7 30 16 NNW 1029,8 60 0,0
26.03.2019 08:00:00 4,0 -1,0 16 9 29 15 N 1029,7 43 0,0
26.03.2019 07:00:00 2,7 -1,3 13 7 19 10 N 1030,0 53 0,0
26.03.2019 06:00:00 3,1 -1,5 12 7 17 9 NNW 1029,3 59 0,0
26.03.2019 05:00:00 3,7 -1,7 11 6 21 11 N 1029,1 60 0,0
26.03.2019 04:00:00 4,0 -2,0 11 6 18 10 N 1029,1 57 0,0
26.03.2019 03:00:00 4,5 -2,2 10 6 19 10 N 1029,0 56 0,0
26.03.2019 02:00:00 5,3 -2,5 13 7 21 11 N 1029,0 56 0,0
26.03.2019 01:00:00 5,7 -2,4 12 7 18 10 N 1028,7 59 0,0
26.03.2019 00:00:00 6,5 -2,4 11 6 23 13 N 1028,4 60 0,0
25.03.2019 23:00:00 7,1 -2,1 13 7 26 14 N 1027,9 60 0,0
25.03.2019 22:00:00 7,7 -1,8 14 7 24 13 N 1027,6 59 0,0
25.03.2019 21:00:00 8,6 -1,8 16 9 33 18 N 1027,1 57 0,0
25.03.2019 20:00:00 9,0 -1,4 14 8 32 17 N 1026,4 60 0,0
25.03.2019 19:00:00 10,1 -0,7 20 11 46 25 N 1025,6 60 0,0
25.03.2019 18:00:00 12,2 0,0 27 15 49 26 N 1024,6 55 0,0
25.03.2019 17:00:00 13,8 0,1 27 15 50 27 N 1023,8 49 0,0
25.03.2019 16:00:00 14,4 1,3 32 17 54 29 NNW 1023,6 36 0,0
25.03.2019 15:00:00 15,2 -0,6 26 14 48 26 NNW 1023,8 24 0,0
25.03.2019 14:00:00 14,9 -1,7 26 14 46 25 NNW 1024,3 20 0,0
25.03.2019 13:00:00 14,0 -1,6 22 12 42 23 N 1025,0 16 0,0
25.03.2019 12:00:00 13,5 0,5 22 12 40 22 NNW 1025,3 11 0,0
25.03.2019 11:00:00 11,9 2,6 19 11 35 19 NNW 1025,9 10 0,0
25.03.2019 10:00:00 9,8 4,4 20 11 33 18 NNW 1026,1 9 0,0
25.03.2019 09:00:00 7,6 3,8 15 8 26 14 NNW 1026,0 7 0,0
25.03.2019 08:00:00 5,2 3,4 11 6 18 10 WNW 1026,1 4,6 0,0
25.03.2019 07:00:00 4,4 2,6 14 8 21 11 NNW 1025,9 4,6 0,0
25.03.2019 06:00:00 4,7 2,4 15 8 20 11 NNW 1025,3 5 0,0
25.03.2019 05:00:00 4,8 2,3 14 8 19 10 NNW 1025,4 6 0,0
25.03.2019 04:00:00 4,7 2,2 11 6 18 10 NNW 1025,4 6 0,0
25.03.2019 03:00:00 5,2 2,5 12 7 22 12 NNW 1025,4 6 0,0
25.03.2019 02:00:00 5,5 2,5 10 5 19 10 N 1025,4 7 0,0
25.03.2019 01:00:00 6,5 3,3 15 8 19 10 NNW 1025,7 7 0,0
25.03.2019 00:00:00 6,1 2,7 5 3 22 12 NNW 1026,1 8 0,0
24.03.2019 23:00:00 8,5 3,5 16 9 27 15 NNW 1026,1 10 0,0
24.03.2019 22:00:00 10,0 3,5 18 10 25 14 NNW 1025,9 14 0,0
24.03.2019 21:00:00 11,3 3,6 13 7 23 13 NNW 1025,6 15 0,0
24.03.2019 20:00:00 12,8 4,5 15 8 37 20 NNW 1024,8 16 0,0
24.03.2019 19:00:00 15,2 3,0 17 9 33 18 NNW 1024,1 42 0,0
24.03.2019 18:00:00 17,3 2,1 21 12 38 20 NNW 1023,3 34 0,0
24.03.2019 17:00:00 18,2 2,5 22 12 41 22 NNW 1023,2 60 0,0
24.03.2019 16:00:00 18,8 1,7 19 10 43 23 NNW 1023,3 46 0,0
24.03.2019 15:00:00 19,4 1,8 21 12 39 21 NNW 1023,3 45 0,0
24.03.2019 14:00:00 19,3 1,7 24 13 41 22 NW 1023,8 48 0,0
24.03.2019 13:00:00 18,2 2,1 16 9 34 19 NW 1024,6 44 0,0
24.03.2019 12:00:00 17,6 3,8 15 8 37 20 N 1025,0 49 0,0
24.03.2019 11:00:00 15,1 2,9 14 7 24 13 N 1025,5 20 0,0
24.03.2019 10:00:00 12,5 4,2 9 5 16 9 NW 1025,8 30 0,0
24.03.2019 09:00:00 10,7 4,4 8 4 13 7 NNW 1025,7 35 0,0
24.03.2019 08:00:00 6,4 4,4 4 2 10 5 WNW 1026,1 37 0,0
24.03.2019 07:00:00 3,8 1,7 7 4 11 6 NW 1026,4 35 0,0
24.03.2019 06:00:00 4,6 2,3 6 3 12 6 WNW 1026,0 32 0,0
24.03.2019 05:00:00 2,6 1,0 5 3 9 5 WNW 1026,2 41 0,0
24.03.2019 04:00:00 3,1 1,1 3 1 5 3 NNW 1025,7 45 0,0
24.03.2019 03:00:00 4,4 1,6 0 0 8 4 N 1025,6 57 0,0
24.03.2019 02:00:00 5,4 1,9 4 2 9 5 WNW 1025,7 10 0,0
24.03.2019 01:00:00 6,8 2,1 3 2 10 6 W 1025,5 60 0,0
24.03.2019 00:00:00 8,8 2,4 6 3 12 6 NW 1025,6 60 0,0
23.03.2019 23:00:00 12,4 2,8 10 5 14 7 NNW 1025,4 60 0,0
23.03.2019 22:00:00 14,1 2,3 13 7 18 10 NNW 1025,4 60 0,0
23.03.2019 21:00:00 14,7 2,2 13 7 24 13 NNW 1025,3 60 0,0
23.03.2019 20:00:00 16,5 2,1 17 9 25 13 NNW 1024,7 60 0,0
23.03.2019 19:00:00 18,2 1,6 12 7 26 14 NW 1024,2 60 0,0
23.03.2019 18:00:00 20,7 2,0 16 9 30 16 NW 1023,7 55 0,0
23.03.2019 17:00:00 21,5 2,2 14 8 30 16 WNW 1023,8 60 0,0
23.03.2019 16:00:00 21,2 0,9 17 9 34 18 NNW 1024,2 60 0,0
23.03.2019 15:00:00 21,2 2,0 13 7 25 13 NW 1024,6 50 0,0
23.03.2019 14:00:00 20,4 1,3 14 7 32 17 NNW 1025,7 60 0,0
23.03.2019 13:00:00 19,8 0,7 14 8 27 15 NNW 1026,5 60 0,0
23.03.2019 12:00:00 18,8 2,6 12 6 22 12 N 1026,9 60 0,0
23.03.2019 11:00:00 17,3 4,3 3 2 9 5 NNW 1027,3 60 0,0
23.03.2019 10:00:00 13,6 3,1 6 3 10 6 ESE 1028,0 49 0,0
23.03.2019 09:00:00 7,2 3,6 3 1 6 3 SE 1028,8 54 0,0
23.03.2019 08:00:00 2,4 1,4 0 0 4 2 N 1029,3 49 0,0
23.03.2019 07:00:00 0,5 -0,8 0 0 6 4 N 1029,1 48 0,0
23.03.2019 06:00:00 1,1 -0,2 0 0 5 3 N 1029,0 46 0,0
23.03.2019 05:00:00 1,6 0,1 0 0 3 2 N 1029,0 51 0,0
23.03.2019 04:00:00 2,1 0,2 0 0 3 1 N 1028,9 56 0,0
23.03.2019 03:00:00 3,0 0,6 2 1 3 2 NNW 1029,1 58 0,0
23.03.2019 02:00:00 4,0 0,7 0 0 6 4 N 1029,0 58 0,0
23.03.2019 01:00:00 5,1 0,8 3 2 11 6 NW 1028,8 60 0,0
23.03.2019 00:00:00 5,8 1,9 0 0 5 3 N 1028,6 50 0,0
22.03.2019 23:00:00 6,9 1,2 3 2 11 6 WNW 1028,5 54 0,0
22.03.2019 22:00:00 7,0 1,5 3 2 5 3 WNW 1028,3 60 0,0
22.03.2019 21:00:00 8,7 2,0 0 0 5 3 N 1028,0 60 0,0
22.03.2019 20:00:00 11,9 2,3 3 2 9 5 NW 1027,3 60 0,0
22.03.2019 19:00:00 17,9 1,4 8 4 15 8 N 1026,3 60 0,0
22.03.2019 18:00:00 19,8 0,7 9 5 15 8 N 1025,7 59 0,0
22.03.2019 17:00:00 21,0 0,7 4 2 15 8 WNW 1025,6 18 0,0
22.03.2019 16:00:00 20,5 -2,6 5 3 17 9 E 1026,2 57 0,0
22.03.2019 15:00:00 20,4 -2,7 5 3 18 10 S 1026,6 58 0,0
22.03.2019 14:00:00 19,4 -0,1 6 3 14 8 NW 1027,4 50 0,0
22.03.2019 13:00:00 18,9 0,9 3 2 14 8 SSW 1028,0 38 0,0
22.03.2019 12:00:00 17,1 1,1 3 2 11 6 S 1028,7 36 0,0
22.03.2019 11:00:00 14,6 2,1 3 2 11 6 S 1029,4 40 0,0
22.03.2019 10:00:00 11,7 2,7 5 3 13 7 ESE 1029,7 47 0,0
22.03.2019 09:00:00 7,4 1,2 10 5 13 7 ESE 1030,1 58 0,0
22.03.2019 08:00:00 2,0 0,1 0 0 2 1 N 1030,7 34 0,0
22.03.2019 07:00:00 -1,4 -2,2 0 0 6 4 N 1030,6 33 0,0
22.03.2019 06:00:00 -0,7 -1,7 0 0 3 2 N 1030,2 33 0,0
22.03.2019 05:00:00 -0,7 -2,1 0 0 2 1 N 1030,1 40 0,0
22.03.2019 04:00:00 -0,3 -1,7 0 0 5 3 N 1030,1 36 0,0
22.03.2019 03:00:00 0,4 -1,0 0 0 4 2 N 1030,1 44 0,0
22.03.2019 02:00:00 0,6 -1,5 0 0 3 1 N 1030,1 50 0,0
22.03.2019 01:00:00 0,8 -1,8 0 0 2 1 N 1030,1 50 0,0
22.03.2019 00:00:00 1,4 -1,3 0 0 3 1 N 1030,2 59 0,0
21.03.2019 23:00:00 2,1 -1,2 0 0 5 3 N 1030,0 60 0,0
21.03.2019 22:00:00 3,2 -1,0 0 0 0 0 N 1029,6 60 0,0
21.03.2019 21:00:00 4,6 -0,8 0 0 2 1 N 1029,2 60 0,0
21.03.2019 20:00:00 7,8 0,3 0 0 3 2 N 1028,6 60 0,0
21.03.2019 19:00:00 13,5 0,1 3 2 9 5 S 1027,8 60 0,0
21.03.2019 18:00:00 16,4 -2,7 5 3 14 8 SW 1027,2 59 0,0
21.03.2019 17:00:00 16,4 -2,7 4 2 19 10 W 1027,1 50 0,0
21.03.2019 16:00:00 16,2 -3,4 5 3 17 9 S 1027,4 39 0,0
21.03.2019 15:00:00 15,4 -2,6 7 4 20 11 E 1028,0 56 0,0
21.03.2019 14:00:00 14,4 -2,1 8 5 18 10 NNW 1028,6 60 0,0
21.03.2019 13:00:00 13,5 -1,7 6 3 18 10 ESE 1029,3 52 0,0
21.03.2019 12:00:00 12,3 -0,6 6 3 17 9 SE 1029,6 60 0,0
21.03.2019 11:00:00 10,3 -0,5 5 3 16 8 E 1030,2 20 0,0
21.03.2019 10:00:00 8,7 0,2 7 4 18 10 SE 1030,5 49 0,0
21.03.2019 09:00:00 7,4 -0,8 6 3 14 8 NE 1030,7 51 0,0
21.03.2019 08:00:00 4,1 -0,3 5 3 15 8 SSE 1031,2 50 0,0
21.03.2019 07:00:00 2,4 -0,7 8 4 13 7 N 1031,0 49 0,0
21.03.2019 06:00:00 2,0 -1,1 5 3 14 8 WNW 1030,7 47 0,0
21.03.2019 05:00:00 3,8 -0,6 8 5 17 9 N 1030,3 53 0,0
21.03.2019 04:00:00 3,8 -1,0 8 4 18 10 NW 1030,4 60 0,0
21.03.2019 03:00:00 5,4 -0,7 11 6 27 15 N 1030,6 60 0,0
21.03.2019 02:00:00 6,7 -0,8 17 9 28 15 N 1031,2 60 0,0
21.03.2019 01:00:00 7,5 -1,0 16 9 24 13 NNE 1031,4 60 0,0
21.03.2019 00:00:00 6,1 -1,3 6 4 15 8 NNW 1031,8 57 0,0
20.03.2019 23:00:00 8,4 -1,4 10 5 26 14 NNE 1031,6 60 0,0
20.03.2019 22:00:00 8,5 -1,3 14 7 20 11 NNE 1031,8 60 0,0
20.03.2019 21:00:00 9,4 -1,1 9 5 32 17 N 1031,7 60 0,0
20.03.2019 20:00:00 10,5 -1,3 16 9 27 14 N 1031,0 60 0,0
20.03.2019 19:00:00 11,9 -0,6 17 9 35 19 N 1030,1 60 0,0
20.03.2019 18:00:00 13,8 -0,7 24 13 40 21 N 1029,2 60 0,0
20.03.2019 17:00:00 14,5 -1,2 25 13 40 22 NNW 1028,8 60 0,0

tt = Température de l'air
td = dewpoint
ff = Vitesse du vent
fx = gusts
dd = Direction du vent
ppp = reduced air pressure
vv = visibility
rr = Quantités de précipitations

stations d'obs. à proximité